Flag for Greece Weather past 2 weeks in Larissa, Greece

Now
66 °F

Sunny.


Feels Like: 66 °F
Forecast: 70 / 91 °F
Wind: 6 mph from North

Location: Kozani Airport

Current Time: Aug 1, 2014 at 9:06:50 AM

Latest Report: Aug 1, 2014 at 7:50 AM


Visibility: 10 mi

Pressure: 29.77 "Hg

Humidity: 68%

Dew point: 55 °F

Location of LarissaLocation

Historic Weather in Larissa — Graph

°F

Larissa temperature yesterday

Maximum temperature yesterday: 88 °F (at 4:50 PM)
Minimum temperature yesterday: 64 °F (at 2:20 AM)
Average temperature yesterday: 73 °F

Past Weeks' High & Low Weather Summary

 TemperatureHumidityPressure
High93 °F (Jul 30, 2:50 PM)100% (Jul 24, 12:50 AM)30.04 "Hg (Jul 24, 12:50 AM)
Low59 °F (Jul 23, 4:50 AM)21% (Jul 29, 4:50 PM)29.68 "Hg (Jul 31, 5:50 PM)
Average72 °F62%29.92 "Hg
* Reported Jul 17 7:20 AM — Aug 1 7:50 AM, Larissa, Weather by CustomWeather, © 2014

Note: Actual official high and low records may vary slightly from our data, if they occured in-between our weather recording intervals... More about our weather records

Advertising

Larissa weather history for previous 24 hours

 ConditionsComfort  
Time TempWeatherWind HumidityBarometerVisibility
7:50 AM
Aug 1
66 °FSunny.6 mph68%29.77 "Hg10 mi
7:20 AM64 °FMild.6 mph73%29.77 "HgN/A
6:50 AM63 °FMild.3 mph77%29.77 "HgN/A
6:20 AM63 °FMild.5 mph77%29.77 "HgN/A
5:50 AM63 °FMild.3 mph77%29.77 "HgN/A
5:20 AM64 °FMild.5 mph73%29.77 "HgN/A
4:50 AM64 °FMild.6 mph78%29.77 "HgN/A
4:20 AM64 °FMild.7 mph78%29.77 "HgN/A
3:50 AM66 °FMild.8 mph73%29.77 "HgN/A
3:20 AM66 °FMild.7 mph73%29.77 "HgN/A
2:50 AM68 °FMild.6 mph69%29.77 "HgN/A
2:20 AM68 °FMild.7 mph64%29.77 "HgN/A
1:50 AM70 °FMild.7 mph60%29.80 "HgN/A
1:20 AM70 °FMild.8 mph60%29.80 "HgN/A
12:50 AM70 °FMild.9 mph60%29.80 "HgN/A
12:20 AM70 °FMild.10 mph60%29.80 "HgN/A
11:50 PM
Jul 31
70 °FMild.10 mph57%29.80 "HgN/A
11:20 PM72 °FMild.10 mph53%29.77 "HgN/A
10:50 PM72 °FMild.10 mph50%29.77 "HgN/A
10:20 PM73 °FMild.10 mph50%29.77 "HgN/A
9:50 PM73 °FMild.8 mph53%29.74 "HgN/A
9:20 PM73 °FMild.9 mph50%29.74 "HgN/A
8:50 PM68 °FScattered clouds.10 mph60%29.71 "HgN/A
7:50 PM79 °FScattered clouds.10 mph39%29.71 "HgN/A
6:50 PM86 °FScattered clouds.10 mph27%29.68 "HgN/A
5:50 PM86 °FScattered clouds.12 mph25%29.68 "HgN/A
4:50 PM88 °FScattered clouds.9 mph25%29.71 "HgN/A
3:50 PM84 °FScattered clouds.8 mph33%29.71 "HgN/A
2:50 PM86 °FScattered clouds.10 mph33%29.71 "HgN/A
1:50 PM84 °FScattered clouds.10 mph33%29.74 "HgN/A
12:50 PM82 °FScattered clouds.8 mph35%29.77 "HgN/A
11:50 AM82 °FPassing clouds.8 mph42%29.77 "HgN/A
10:50 AM81 °FPassing clouds.8 mph51%29.80 "HgN/A
9:50 AM77 °FPassing clouds.No wind61%29.80 "HgN/A
Weather by CustomWeather, © 2014

See weather overviewHow to use our weather pages